Simultaneous Nadir Overpasses (SNOs) Predictions

Prediction of SNOs between GOES-15 and NPP Satellite Orbit:

Table of predicted SNOs for the next 14.0 days since TLE Epoch: 3/23/2024
Index Date Time (GOES-15) GOES-15 Lat,Lon NPP Lat,Lon Distance(km) Time Diff (sec)
1 03/24/2024 09:24:23 -0.09, 61.23 -0.26, 60.60 72.76 80
2 03/25/2024 09:02:59 -0.09, 61.24 0.78, 65.12 442.98 80
3 03/26/2024 21:24:49 0.09, 61.17 0.38, 59.84 150.95 80
4 03/27/2024 21:08:44 0.09, 61.17 -0.60, 64.38 364.48 80
5 03/29/2024 09:30:41 -0.09, 61.26 -0.60, 59.07 249.92 80
6 03/30/2024 09:09:18 -0.09, 61.27 0.44, 63.59 265.01 80
7 03/31/2024 21:31:06 0.10, 61.21 0.76, 58.32 330.42 80
8 04/01/2024 21:15:03 0.10, 61.23 -0.28, 62.84 184.17 80
9 04/03/2024 09:36:59 -0.10, 61.32 -0.97, 57.54 431.34 80
10 04/04/2024 09:18:16 -0.11, 61.34 0.08, 62.06 83.00 80
